| time (UTC) | temp C | wind direction | speed KPH | gust KPH | rain 1hr cm | rain 24hr cm | rain mn cm | humidity % | barometer mb |
| 20260506104003 | 17 | 24 | 1.6 | 3.2 | 0.00 | 0.00 | 0.00 | 55 | 1006.5 |
| 20260506103717 | 17 | 38 | 1.6 | 3.2 | 0.00 | 0.00 | 0.00 | 55 | 1006.3 |
| 20260506103003 | 18 | 47 | 1.6 | 6.4 | 0.00 | 0.00 | 0.00 | 54 | 1006.7 |
| 20260506102503 | 17 | 23 | 1.6 | 4.8 | 0.00 | 0.00 | 0.00 | 54 | 1006.5 |
| 20260506102003 | 17 | 23 | 3.2 | 8.0 | 0.00 | 0.00 | 0.00 | 56 | 1006.6 |
| 20260506101503 | 18 | 16 | 1.6 | 6.4 | 0.00 | 0.00 | 0.00 | 55 | 1006.6 |
| 20260506101003 | 18 | 352 | 1.6 | 3.2 | 0.00 | 0.00 | 0.00 | 53 | 1006.7 |
| 20260506100503 | 17 | 8 | 1.6 | 4.8 | 0.00 | 0.00 | 0.00 | 55 | 1006.7 |
| 20260506100003 | 17 | 27 | 1.6 | 6.4 | 0.00 | 0.00 | 0.00 | 55 | 1006.9 |
| 20260506095503 | 17 | 349 | 1.6 | 3.2 | 0.00 | 0.00 | 0.00 | 56 | 1006.8 |
| 20260506095003 | 16 | 322 | 1.6 | 3.2 | 0.00 | 0.00 | 0.00 | 57 | 1007.0 |
| 20260506094503 | 16 | 335 | 1.6 | 3.2 | 0.00 | 0.00 | 0.00 | 59 | 1006.7 |
| 20260506094218 | 16 | 341 | 1.6 | 4.8 | 0.00 | 0.00 | 0.00 | 59 | 1006.8 |
| 20260506093503 | 16 | 322 | 3.2 | 4.8 | 0.00 | 0.00 | 0.00 | 60 | 1006.9 |
| 20260506093003 | 16 | 336 | 1.6 | 6.4 | 0.00 | 0.00 | 0.00 | 58 | 1006.9 |
| 20260506092717 | 16 | 335 | 1.6 | 6.4 | 0.00 | 0.00 | 0.00 | 59 | 1007.0 |
| 20260506092003 | 16 | 314 | 1.6 | 4.8 | 0.00 | 0.00 | 0.00 | 60 | 1007.0 |
| 20260506091503 | 16 | 323 | 1.6 | 6.4 | 0.00 | 0.00 | 0.00 | 62 | 1007.2 |
| 20260506091003 | 16 | 328 | 1.6 | 6.4 | 0.00 | 0.00 | 0.00 | 64 | 1006.9 |
| 20260506090717 | 16 | 349 | 0.0 | 4.8 | 0.00 | 0.00 | 0.00 | 62 | 1006.8 |
| 20260506090003 | 15 | 37 | 1.6 | 3.2 | 0.00 | 0.00 | 0.00 | 67 | 1007.0 |
| 20260506085503 | 15 | 38 | 1.6 | 4.8 | 0.00 | 0.00 | 0.00 | 65 | 1006.8 |
| 20260506085003 | 15 | 327 | 0.0 | 3.2 | 0.00 | 0.00 | 0.00 | 67 | 1006.8 |
| 20260506084503 | 15 | 32 | 1.6 | 3.2 | 0.00 | 0.00 | 0.00 | 68 | 1006.8 |
| 20260506084003 | 14 | 34 | 1.6 | 3.2 | 0.00 | 0.00 | 0.00 | 69 | 1006.9 |
| 20260506083503 | 14 | 7 | 1.6 | 3.2 | 0.00 | 0.00 | 0.00 | 69 | 1007.0 |
| 20260506083003 | 14 | 1 | 1.6 | 3.2 | 0.00 | 0.00 | 0.00 | 71 | 1007.0 |
| 20260506082716 | 14 | 359 | 1.6 | 4.8 | 0.00 | 0.00 | 0.00 | 72 | 1006.9 |
| 20260506082217 | 14 | 39 | 1.6 | 3.2 | 0.00 | 0.00 | 0.00 | 72 | 1006.9 |
| 20260506081503 | 14 | 336 | 1.6 | 1.6 | 0.00 | 0.00 | 0.00 | 73 | 1006.9 |
| 20260506081003 | 13 | 314 | 1.6 | 3.2 | 0.00 | 0.00 | 0.00 | 74 | 1007.0 |
| 20260506080716 | 13 | 307 | 1.6 | 3.2 | 0.00 | 0.00 | 0.00 | 75 | 1006.9 |
| 20260506073503 | 13 | 331 | 1.6 | 3.2 | 0.00 | 0.00 | 0.00 | 74 | 1007.3 |
| 20260506073217 | 13 | 336 | 1.6 | 4.8 | 0.00 | 0.00 | 0.00 | 75 | 1007.4 |
| 20260506072503 | 13 | 328 | 1.6 | 4.8 | 0.00 | 0.00 | 0.00 | 76 | 1007.3 |
| 20260506072003 | 13 | 312 | 1.6 | 4.8 | 0.00 | 0.00 | 0.00 | 75 | 1007.3 |
| 20260506071503 | 14 | 316 | 1.6 | 4.8 | 0.00 | 0.00 | 0.00 | 73 | 1007.3 |
| 20260506071217 | 14 | 325 | 1.6 | 4.8 | 0.00 | 0.00 | 0.00 | 73 | 1006.8 |
| 20260506070503 | 13 | 313 | 1.6 | 6.4 | 0.00 | 0.00 | 0.00 | 74 | 1007.3 |
| 20260506062503 | 15 | 343 | 1.6 | 3.2 | 0.00 | 0.00 | 0.00 | 70 | 1007.4 |
| 20260506062217 | 14 | 344 | 1.6 | 3.2 | 0.00 | 0.00 | 0.00 | 72 | 1007.2 |
| 20260506061503 | 15 | 336 | 1.6 | 4.8 | 0.00 | 0.00 | 0.00 | 71 | 1007.0 |
| 20260506061003 | 14 | 335 | 1.6 | 3.2 | 0.00 | 0.00 | 0.00 | 72 | 1007.2 |
| 20260506060503 | 13 | 10 | 1.6 | 3.2 | 0.00 | 0.00 | 0.00 | 73 | 1007.3 |
| 20260506051003 | 10 | 263 | 1.6 | 4.8 | 0.00 | 0.00 | 0.00 | 88 | 1007.4 |
| 20260506050503 | 10 | 224 | 0.0 | 3.2 | 0.00 | 0.00 | 0.00 | 88 | 1007.4 |
| 20260506045003 | 10 | 307 | 1.6 | 3.2 | 0.00 | 0.00 | 0.00 | 90 | 1007.6 |
| 20260506044503 | 10 | 326 | 0.0 | 3.2 | 0.00 | 0.00 | 0.00 | 90 | 1007.5 |
| 20260506044003 | 10 | 342 | 0.0 | 3.2 | 0.00 | 0.00 | 0.00 | 91 | 1007.6 |
| 20260506043503 | 10 | 354 | 0.0 | 3.2 | 0.00 | 0.00 | 0.00 | 91 | 1007.8 |
| 20260506043003 | 10 | 3 | 1.6 | 3.2 | 0.00 | 0.00 | 0.00 | 91 | 1007.9 |
| 20260506042503 | 10 | 8 | 1.6 | 3.2 | 0.00 | 0.00 | 0.00 | 91 | 1007.8 |
| 20260506042003 | 9 | 347 | 0.0 | 3.2 | 0.00 | 0.00 | 0.00 | 91 | 1007.7 |
| 20260506041503 | 10 | 315 | 1.6 | 3.2 | 0.00 | 0.00 | 0.00 | 91 | 1007.8 |
| 20260506041003 | 10 | 283 | 1.6 | 3.2 | 0.00 | 0.00 | 0.00 | 91 | 1007.8 |
| 20260506040503 | 10 | 209 | 0.0 | 3.2 | 0.00 | 0.00 | 0.00 | 91 | 1007.8 |
| 20260506040003 | 10 | 307 | 0.0 | 1.6 | 0.00 | 0.00 | 0.00 | 91 | 1007.9 |
| 20260506035503 | 10 | 316 | 1.6 | 3.2 | 0.00 | 0.00 | 0.00 | 90 | 1008.0 |
| 20260506035003 | 10 | 300 | 0.0 | 3.2 | 0.00 | 0.00 | 0.00 | 90 | 1007.9 |
| 20260506034503 | 10 | 342 | 1.6 | 3.2 | 0.00 | 0.00 | 0.00 | 90 | 1007.9 |
| 20260506034003 | 10 | 349 | 1.6 | 4.8 | 0.00 | 0.00 | 0.00 | 91 | 1008.1 |
| 20260506033503 | 10 | 335 | 0.0 | 3.2 | 0.00 | 0.00 | 0.00 | 91 | 1008.0 |
| 20260506033003 | 10 | 338 | 0.0 | 3.2 | 0.00 | 0.00 | 0.00 | 90 | 1008.0 |
| 20260506032717 | 10 | 328 | 0.0 | 3.2 | 0.00 | 0.00 | 0.00 | 90 | 1007.9 |
| 20260506032003 | 10 | 307 | 1.6 | 3.2 | 0.00 | 0.00 | 0.00 | 89 | 1008.0 |
| 20260506031503 | 10 | 356 | 0.0 | 3.2 | 0.00 | 0.00 | 0.00 | 89 | 1007.9 |
| 20260506031003 | 10 | 327 | 0.0 | 3.2 | 0.00 | 0.00 | 0.00 | 89 | 1008.2 |
| 20260506030503 | 10 | 330 | 0.0 | 3.2 | 0.00 | 0.00 | 0.00 | 89 | 1008.0 |
| 20260506030003 | 10 | 326 | 0.0 | 3.2 | 0.00 | 0.00 | 0.00 | 88 | 1008.2 |
| 20260506025503 | 10 | 322 | 0.0 | 3.2 | 0.00 | 0.00 | 0.00 | 88 | 1008.1 |
| 20260506025003 | 10 | 338 | 0.0 | 3.2 | 0.00 | 0.00 | 0.00 | 87 | 1008.4 |
| 20260506024503 | 11 | 348 | 0.0 | 3.2 | 0.00 | 0.00 | 0.00 | 87 | 1008.3 |
| 20260506024003 | 11 | 3 | 0.0 | 1.6 | 0.00 | 0.00 | 0.00 | 87 | 1008.2 |
| 20260506023503 | 11 | 336 | 0.0 | 3.2 | 0.00 | 0.00 | 0.00 | 86 | 1007.9 |
| 20260506023003 | 11 | 279 | 0.0 | 3.2 | 0.00 | 0.00 | 0.00 | 86 | 1008.1 |
| 20260506022503 | 11 | 268 | 0.0 | 3.2 | 0.00 | 0.00 | 0.00 | 85 | 1008.2 |
| 20260506022003 | 11 | 264 | 1.6 | 3.2 | 0.00 | 0.00 | 0.00 | 85 | 1008.2 |
| 20260506021503 | 11 | 270 | 1.6 | 3.2 | 0.00 | 0.00 | 0.00 | 85 | 1008.0 |
| 20260506021003 | 11 | 281 | 1.6 | 4.8 | 0.00 | 0.00 | 0.00 | 86 | 1008.2 |
| 20260506020503 | 11 | 273 | 0.0 | 3.2 | 0.00 | 0.00 | 0.00 | 86 | 1008.1 |
| 20260506020003 | 11 | 245 | 0.0 | 1.6 | 0.00 | 0.00 | 0.00 | 86 | 1008.1 |
| 20260506015503 | 11 | 302 | 0.0 | 3.2 | 0.00 | 0.00 | 0.00 | 86 | 1008.0 |
| 20260506015003 | 11 | 331 | 1.6 | 3.2 | 0.00 | 0.00 | 0.00 | 86 | 1008.3 |
| 20260506014503 | 11 | 349 | 1.6 | 4.8 | 0.00 | 0.00 | 0.00 | 86 | 1008.6 |
| 20260506014003 | 11 | 353 | 1.6 | 3.2 | 0.00 | 0.00 | 0.00 | 86 | 1008.3 |
| 20260506013718 | 11 | 340 | 1.6 | 4.8 | 0.00 | 0.00 | 0.00 | 86 | 1008.4 |
| 20260506013217 | 11 | 336 | 1.6 | 6.4 | 0.00 | 0.00 | 0.00 | 85 | 1008.5 |
| 20260506012718 | 11 | 331 | 1.6 | 6.4 | 0.00 | 0.00 | 0.00 | 85 | 1008.6 |
| 20260506012003 | 11 | 327 | 1.6 | 4.8 | 0.00 | 0.00 | 0.00 | 84 | 1008.5 |
| 20260506011718 | 11 | 327 | 1.6 | 4.8 | 0.00 | 0.00 | 0.00 | 84 | 1008.3 |
| 20260506011003 | 11 | 315 | 1.6 | 8.0 | 0.00 | 0.00 | 0.00 | 84 | 1008.3 |
| 20260506010718 | 11 | 304 | 1.6 | 8.0 | 0.00 | 0.00 | 0.00 | 84 | 1008.2 |
| 20260506010003 | 11 | 320 | 1.6 | 4.8 | 0.00 | 0.00 | 0.00 | 85 | 1008.3 |
| 20260506005503 | 11 | 335 | 1.6 | 4.8 | 0.00 | 0.00 | 0.00 | 85 | 1008.3 |
| 20260506005217 | 11 | 310 | 0.0 | 3.2 | 0.00 | 0.00 | 0.00 | 84 | 1008.1 |
| 20260506004718 | 11 | 327 | 0.0 | 1.6 | 0.00 | 0.00 | 0.00 | 84 | 1008.3 |
| 20260506004003 | 12 | 342 | 0.0 | 3.2 | 0.00 | 0.00 | 0.00 | 83 | 1008.4 |
| 20260506003718 | 12 | 291 | 0.0 | 1.6 | 0.00 | 0.00 | 0.00 | 83 | 1008.2 |
| 20260506003003 | 12 | 248 | 0.0 | 3.2 | 0.00 | 0.00 | 0.00 | 82 | 1008.2 |
| 20260506002717 | 12 | 256 | 0.0 | 3.2 | 0.00 | 0.00 | 0.00 | 82 | 1008.3 |
| 20260506002003 | 12 | 257 | 0.0 | 6.4 | 0.00 | 0.00 | 0.00 | 82 | 1008.3 |
| 20260506001503 | 12 | 231 | 1.6 | 3.2 | 0.00 | 0.00 | 0.00 | 82 | 1008.5 |
| 20260506001003 | 12 | 227 | 1.6 | 4.8 | 0.00 | 0.00 | 0.00 | 81 | 1008.3 |
| 20260506000503 | 12 | 223 | 1.6 | 3.2 | 0.00 | 0.00 | 0.00 | 81 | 1008.5 |
| 20260506000003 | 12 | 235 | 0.0 | 4.8 | 0.00 | 0.00 | 0.00 | 80 | 1008.3 |
| 20260505235717 | 12 | 234 | 0.0 | 4.8 | 0.00 | 0.00 | 0.00 | 80 | 1008.5 |
| 20260505235003 | 12 | 279 | 0.0 | 3.2 | 0.00 | 0.00 | 0.00 | 80 | 1008.8 |
| 20260505234503 | 13 | 212 | 0.0 | 3.2 | 0.00 | 0.00 | 0.00 | 79 | 1008.6 |
| 20260505234003 | 13 | 230 | 0.0 | 3.2 | 0.00 | 0.00 | 0.00 | 79 | 1008.8 |
| 20260505233503 | 13 | 248 | 0.0 | 3.2 | 0.00 | 0.00 | 0.00 | 78 | 1008.7 |
| 20260505233003 | 13 | 266 | 0.0 | 1.6 | 0.00 | 0.00 | 0.00 | 78 | 1008.9 |
| 20260505232503 | 13 | 291 | 1.6 | 3.2 | 0.00 | 0.00 | 0.00 | 78 | 1008.8 |
| 20260505232003 | 13 | 303 | 1.6 | 4.8 | 0.00 | 0.00 | 0.00 | 78 | 1008.7 |
| 20260505231503 | 13 | 300 | 1.6 | 6.4 | 0.00 | 0.00 | 0.00 | 78 | 1008.7 |
| 20260505231003 | 13 | 293 | 1.6 | 3.2 | 0.00 | 0.00 | 0.00 | 79 | 1008.6 |
| 20260505230503 | 13 | 285 | 1.6 | 6.4 | 0.00 | 0.00 | 0.00 | 80 | 1008.7 |
| 20260505230003 | 12 | 294 | 0.0 | 8.0 | 0.00 | 0.00 | 0.00 | 83 | 1008.9 |
| 20260505225503 | 12 | 343 | 0.0 | 1.6 | 0.00 | 0.00 | 0.00 | 86 | 1009.1 |
| 20260505225003 | 12 | 304 | 0.0 | 3.2 | 0.00 | 0.00 | 0.00 | 86 | 1009.0 |
| 20260505224503 | 12 | 245 | 0.0 | 3.2 | 0.00 | 0.00 | 0.00 | 85 | 1008.9 |
| 20260505224003 | 12 | 242 | 0.0 | 3.2 | 0.00 | 0.00 | 0.00 | 85 | 1009.1 |
| 20260505223503 | 12 | 254 | 0.0 | 3.2 | 0.00 | 0.00 | 0.00 | 85 | 1009.1 |
| 20260505223218 | 12 | 291 | 0.0 | 3.2 | 0.00 | 0.00 | 0.00 | 84 | 1009.1 |
| 20260505222717 | 12 | 0 | 0.0 | 0.0 | 0.00 | 0.00 | 0.00 | 84 | 1008.8 |
| 20260505222003 | 12 | 229 | 0.0 | 0.0 | 0.00 | 0.00 | 0.00 | 84 | 1008.9 |
| 20260505221503 | 13 | 237 | 0.0 | 3.2 | 0.00 | 0.00 | 0.00 | 83 | 1008.7 |
| 20260505221218 | 13 | 33 | 0.0 | 1.6 | 0.00 | 0.00 | 0.00 | 84 | 1008.5 |
| 20260505220503 | 12 | 0 | 0.0 | 0.0 | 0.00 | 0.00 | 0.00 | 84 | 1008.7 |
| 20260505220003 | 12 | 343 | 0.0 | 0.0 | 0.00 | 0.00 | 0.00 | 84 | 1008.7 |
| 20260505215503 | 13 | 3 | 0.0 | 1.6 | 0.00 | 0.00 | 0.00 | 83 | 1008.6 |
| 20260505215003 | 13 | 8 | 0.0 | 1.6 | 0.00 | 0.00 | 0.00 | 83 | 1008.4 |
| 20260505214503 | 13 | 339 | 0.0 | 3.2 | 0.00 | 0.00 | 0.00 | 83 | 1008.4 |
| 20260505214004 | 13 | 336 | 0.0 | 3.2 | 0.00 | 0.00 | 0.00 | 83 | 1008.4 |
| 20260505213503 | 13 | 350 | 0.0 | 3.2 | 0.00 | 0.00 | 0.00 | 83 | 1008.3 |
| 20260505213003 | 13 | 13 | 0.0 | 3.2 | 0.00 | 0.00 | 0.00 | 82 | 1008.4 |
| 20260505212503 | 13 | 194 | 0.0 | 3.2 | 0.00 | 0.00 | 0.00 | 81 | 1008.3 |
| 20260505212003 | 13 | 208 | 0.0 | 3.2 | 0.00 | 0.00 | 0.00 | 81 | 1008.4 |
| 20260505211503 | 13 | 30 | 0.0 | 1.6 | 0.00 | 0.00 | 0.00 | 82 | 1008.5 |
| 20260505211004 | 13 | 27 | 1.6 | 3.2 | 0.00 | 0.00 | 0.00 | 82 | 1008.5 |
| 20260505210503 | 13 | 9 | 1.6 | 3.2 | 0.00 | 0.00 | 0.00 | 82 | 1008.6 |
| 20260505210003 | 13 | 354 | 1.6 | 4.8 | 0.00 | 0.00 | 0.00 | 82 | 1008.7 |
| 20260505205503 | 13 | 353 | 1.6 | 4.8 | 0.00 | 0.00 | 0.00 | 83 | 1008.7 |
| 20260505205003 | 13 | 352 | 0.0 | 1.6 | 0.00 | 0.00 | 0.00 | 82 | 1008.6 |
| 20260505204503 | 13 | 347 | 1.6 | 3.2 | 0.00 | 0.00 | 0.00 | 82 | 1008.7 |
| 20260505204003 | 13 | 346 | 1.6 | 3.2 | 0.00 | 0.00 | 0.00 | 81 | 1008.5 |
| 20260505203503 | 13 | 347 | 1.6 | 3.2 | 0.00 | 0.00 | 0.00 | 81 | 1008.4 |
| 20260505203003 | 13 | 357 | 1.6 | 3.2 | 0.00 | 0.00 | 0.00 | 81 | 1008.4 |
| 20260505202718 | 13 | 5 | 0.0 | 3.2 | 0.00 | 0.00 | 0.00 | 80 | 1008.4 |
| 20260505202217 | 13 | 348 | 0.0 | 3.2 | 0.00 | 0.00 | 0.00 | 79 | 1008.5 |
| 20260505201503 | 13 | 248 | 0.0 | 1.6 | 0.00 | 0.00 | 0.00 | 79 | 1008.2 |
| 20260505201003 | 13 | 246 | 0.0 | 1.6 | 0.00 | 0.00 | 0.00 | 79 | 1008.1 |
| 20260505200503 | 13 | 245 | 0.0 | 1.6 | 0.00 | 0.00 | 0.00 | 79 | 1008.2 |
| 20260505200003 | 13 | 245 | 0.0 | 1.6 | 0.00 | 0.00 | 0.00 | 79 | 1008.2 |
| 20260505195503 | 13 | 253 | 0.0 | 1.6 | 0.00 | 0.00 | 0.00 | 79 | 1008.0 |
| 20260505195003 | 13 | 260 | 0.0 | 1.6 | 0.00 | 0.00 | 0.00 | 79 | 1007.9 |
| 20260505194503 | 13 | 251 | 0.0 | 1.6 | 0.00 | 0.00 | 0.00 | 79 | 1008.0 |
| 20260505194003 | 13 | 263 | 0.0 | 1.6 | 0.00 | 0.00 | 0.00 | 78 | 1008.0 |
| 20260505193503 | 13 | 278 | 0.0 | 1.6 | 0.00 | 0.00 | 0.00 | 79 | 1007.9 |
| 20260505193217 | 13 | 276 | 0.0 | 3.2 | 0.00 | 0.00 | 0.00 | 79 | 1008.0 |
| 20260505192503 | 13 | 247 | 0.0 | 1.6 | 0.00 | 0.00 | 0.00 | 79 | 1007.8 |
| 20260505192003 | 13 | 248 | 0.0 | 3.2 | 0.00 | 0.00 | 0.00 | 79 | 1007.9 |
| 20260505191718 | 13 | 245 | 0.0 | 3.2 | 0.00 | 0.00 | 0.00 | 79 | 1007.7 |
| 20260505191003 | 13 | 253 | 0.0 | 3.2 | 0.00 | 0.00 | 0.00 | 79 | 1007.6 |
| 20260505190717 | 13 | 261 | 1.6 | 3.2 | 0.00 | 0.00 | 0.00 | 79 | 1007.8 |
| 20260505190003 | 14 | 260 | 1.6 | 3.2 | 0.00 | 0.00 | 0.00 | 78 | 1007.7 |
| 20260505185503 | 14 | 254 | 1.6 | 3.2 | 0.00 | 0.00 | 0.00 | 77 | 1007.5 |
| 20260505185003 | 14 | 242 | 1.6 | 3.2 | 0.00 | 0.00 | 0.00 | 77 | 1007.4 |
| 20260505184503 | 14 | 250 | 1.6 | 3.2 | 0.00 | 0.00 | 0.00 | 76 | 1007.6 |
| 20260505184003 | 14 | 254 | 0.0 | 3.2 | 0.00 | 0.00 | 0.00 | 76 | 1007.7 |
| 20260505183503 | 14 | 254 | 0.0 | 3.2 | 0.00 | 0.00 | 0.00 | 75 | 1007.4 |
| 20260505183003 | 15 | 263 | 1.6 | 3.2 | 0.00 | 0.00 | 0.00 | 75 | 1007.3 |
| 20260505182717 | 15 | 237 | 1.6 | 3.2 | 0.00 | 0.00 | 0.00 | 74 | 1007.2 |
| 20260505182003 | 15 | 208 | 1.6 | 8.0 | 0.00 | 0.00 | 0.00 | 73 | 1007.4 |
| 20260505181503 | 15 | 211 | 1.6 | 8.0 | 0.00 | 0.00 | 0.00 | 73 | 1007.0 |
| 20260505181003 | 15 | 213 | 1.6 | 4.8 | 0.00 | 0.00 | 0.00 | 73 | 1007.2 |
| 20260505180503 | 15 | 210 | 1.6 | 6.4 | 0.00 | 0.00 | 0.00 | 73 | 1007.3 |
| 20260505180003 | 15 | 214 | 3.2 | 8.0 | 0.00 | 0.00 | 0.00 | 73 | 1006.9 |
| 20260505175503 | 15 | 226 | 3.2 | 9.7 | 0.00 | 0.00 | 0.00 | 73 | 1007.2 |
| 20260505175003 | 15 | 235 | 3.2 | 6.4 | 0.00 | 0.00 | 0.00 | 73 | 1007.2 |
| 20260505174503 | 15 | 226 | 3.2 | 8.0 | 0.00 | 0.00 | 0.00 | 72 | 1007.0 |
| 20260505174003 | 15 | 229 | 3.2 | 9.7 | 0.00 | 0.00 | 0.00 | 72 | 1006.9 |
| 20260505173503 | 15 | 250 | 1.6 | 6.4 | 0.00 | 0.00 | 0.00 | 72 | 1006.8 |
| 20260505173003 | 15 | 237 | 1.6 | 4.8 | 0.00 | 0.00 | 0.00 | 72 | 1006.8 |
| 20260505172503 | 16 | 225 | 3.2 | 8.0 | 0.00 | 0.00 | 0.00 | 71 | 1006.9 |
| 20260505172003 | 16 | 228 | 3.2 | 9.7 | 0.00 | 0.00 | 0.00 | 71 | 1006.8 |
| 20260505171503 | 16 | 225 | 3.2 | 6.4 | 0.00 | 0.00 | 0.00 | 70 | 1006.7 |
| 20260505171003 | 16 | 222 | 3.2 | 12.9 | 0.00 | 0.00 | 0.00 | 70 | 1006.5 |
| 20260505170503 | 16 | 223 | 3.2 | 9.7 | 0.00 | 0.00 | 0.00 | 70 | 1006.7 |
| 20260505170003 | 16 | 227 | 3.2 | 14.5 | 0.00 | 0.00 | 0.00 | 71 | 1006.7 |
| 20260505165717 | 16 | 226 | 4.8 | 14.5 | 0.00 | 0.00 | 0.00 | 71 | 1006.7 |
| 20260505165003 | 16 | 240 | 4.8 | 14.5 | 0.00 | 0.00 | 0.00 | 71 | 1006.7 |
| 20260505164503 | 15 | 245 | 3.2 | 11.3 | 0.00 | 0.00 | 0.00 | 71 | 1007.0 |
| 20260505164003 | 16 | 221 | 4.8 | 11.3 | 0.00 | 0.00 | 0.00 | 70 | 1006.9 |
| 20260505163503 | 16 | 218 | 3.2 | 14.5 | 0.00 | 0.00 | 0.00 | 70 | 1006.7 |
| 20260505163003 | 16 | 270 | 3.2 | 8.0 | 0.00 | 0.00 | 0.00 | 71 | 1006.9 |
| 20260505162716 | 15 | 324 | 3.2 | 9.7 | 0.00 | 0.00 | 0.00 | 71 | 1006.9 |
| 20260505162003 | 16 | 277 | 3.2 | 12.9 | 0.00 | 0.00 | 0.00 | 72 | 1007.0 |
| 20260505161503 | 16 | 251 | 3.2 | 11.3 | 0.00 | 0.00 | 0.00 | 72 | 1007.2 |
| 20260505161003 | 16 | 243 | 4.8 | 14.5 | 0.00 | 0.00 | 0.00 | 71 | 1007.3 |
| 20260505160503 | 16 | 203 | 4.8 | 14.5 | 0.00 | 0.00 | 0.00 | 70 | 1007.2 |
| 20260505153003 | 17 | 16 | 3.2 | 8.0 | 0.00 | 0.00 | 0.00 | 68 | 1007.2 |
| 20260505152503 | 17 | 4 | 3.2 | 12.9 | 0.00 | 0.00 | 0.00 | 67 | 1007.2 |
| 20260505152003 | 17 | 2 | 3.2 | 9.7 | 0.00 | 0.00 | 0.00 | 67 | 1007.2 |
| 20260505151503 | 17 | 14 | 3.2 | 11.3 | 0.00 | 0.00 | 0.00 | 64 | 1007.0 |
| 20260505151003 | 17 | 22 | 3.2 | 6.4 | 0.00 | 0.00 | 0.00 | 61 | 1007.3 |
| 20260505150503 | 17 | 25 | 3.2 | 8.0 | 0.00 | 0.00 | 0.00 | 61 | 1006.9 |
| 20260505140503 | 18 | 83 | 3.2 | 4.8 | 0.00 | 0.00 | 0.00 | 64 | 1007.2 |
| 20260505130218 | 22 | 139 | 1.6 | 4.8 | 0.00 | 0.00 | 0.00 | 37 | 1006.7 |
| 20260505125003 | 22 | 157 | 3.2 | 6.4 | 0.00 | 0.00 | 0.00 | 35 | 1006.5 |
| 20260505124503 | 22 | 164 | 4.8 | 9.7 | 0.00 | 0.00 | 0.00 | 36 | 1006.5 |
| 20260505124003 | 23 | 159 | 3.2 | 8.0 | 0.00 | 0.00 | 0.00 | 35 | 1006.6 |
| 20260505123717 | 23 | 158 | 3.2 | 6.4 | 0.00 | 0.00 | 0.00 | 35 | 1006.6 |
| 20260505123003 | 22 | 154 | 3.2 | 6.4 | 0.00 | 0.00 | 0.00 | 36 | 1006.6 |
| 20260505122717 | 22 | 150 | 3.2 | 6.4 | 0.00 | 0.00 | 0.00 | 37 | 1006.8 |
| 20260505122218 | 22 | 151 | 4.8 | 8.0 | 0.00 | 0.00 | 0.00 | 37 | 1006.8 |
| 20260505121503 | 22 | 149 | 3.2 | 6.4 | 0.00 | 0.00 | 0.00 | 36 | 1006.6 |
| 20260505121003 | 23 | 153 | 3.2 | 4.8 | 0.00 | 0.00 | 0.00 | 34 | 1006.8 |
| 20260505120503 | 22 | 162 | 3.2 | 6.4 | 0.00 | 0.00 | 0.00 | 36 | 1006.8 |
| 20260505120003 | 23 | 162 | 1.6 | 4.8 | 0.00 | 0.00 | 0.00 | 36 | 1006.8 |
| 20260505115503 | 23 | 162 | 1.6 | 4.8 | 0.00 | 0.00 | 0.00 | 37 | 1006.8 |
| 20260505115218 | 23 | 209 | 1.6 | 3.2 | 0.00 | 0.00 | 0.00 | 36 | 1006.8 |
| 20260505114503 | 22 | 220 | 1.6 | 6.4 | 0.00 | 0.00 | 0.00 | 36 | 1006.7 |
| 20260505114003 | 23 | 187 | 1.6 | 6.4 | 0.00 | 0.00 | 0.00 | 37 | 1006.8 |
| 20260505113503 | 22 | 166 | 1.6 | 4.8 | 0.00 | 0.00 | 0.00 | 39 | 1006.7 |
| 20260505113003 | 22 | 156 | 3.2 | 6.4 | 0.00 | 0.00 | 0.00 | 38 | 1006.8 |
| 20260505112503 | 21 | 156 | 3.2 | 6.4 | 0.00 | 0.00 | 0.00 | 39 | 1007.0 |
| 20260505112218 | 22 | 163 | 3.2 | 4.8 | 0.00 | 0.00 | 0.00 | 41 | 1007.0 |
| 20260505111716 | 22 | 170 | 3.2 | 8.0 | 0.00 | 0.00 | 0.00 | 42 | 1007.2 |
| 20260505111003 | 22 | 173 | 1.6 | 6.4 | 0.00 | 0.00 | 0.00 | 40 | 1007.2 |
| 20260505110503 | 22 | 180 | 1.6 | 6.4 | 0.00 | 0.00 | 0.00 | 40 | 1007.2 |